La Grange, GA

7:32 PM EDT on April 25, 2017 (GMT -0400)
Lagrange-Callaway

Weather History for KLGC - October, 2012

Change the Weather History Date:

Monday, October 29, 2012

  Actual Average Record
Temperature  
Mean Temperature 47 °F -  
Max Temperature 55 °F 71 °F 86 °F (2016)
Min Temperature 39 °F 44 °F 25 °F (1976)
Degree Days  
Heating Degree Days 18    
Moisture  
Dew Point 30 °F    
Average Humidity 54    
Maximum Humidity 81    
Minimum Humidity 29    
Precipitation  
Precipitation 0.00 in - - ()
Sea Level Pressure  
Sea Level Pressure 29.90 in    
Wind  
Wind Speed 11 mph (NW)    
Max Wind Speed 21 mph    
Max Gust Speed 30 mph    
Visibility 10 miles    
Events      
Averages and records for this station are not official NWS values.
T = Trace of Precipitation, MM = Missing Value Source: NWS Daily Summary

Daily Weather History Graph

Daily Weather History Graph

Search for Another Location

Airport or City:

Trip Planner

Search our weather history database for the weather conditions in past years. The results will help you decide how hot, cold, wet, or windy it might be!

Date:

Astronomy

Oct. 29, 2012 Rise Set
Actual Time 7:56 AM EDT 6:51 PM EDT
Civil Twilight 7:30 AM EDT 7:16 PM EDT
Nautical Twilight 7:01 AM EDT 7:45 PM EDT
Astronomical Twilight 6:32 AM EDT 8:14 PM EDT
Moon 6:45 PM EDT (10/29) 7:44 AM EDT (10/29)
Length of Visible Light 11h 45m
Length of Day
10h 55m
Full, 100% of the Moon is Illuminated
Oct 29
Full
Oct 29
Full
Nov 6
Last Quarter
Nov 13
New
Nov 20
First Quarter

Hourly Weather History & Observations

Time (EDT) Temp. Windchill Dew Point Humidity Pressure Visibility Wind Dir Wind Speed Gust Speed Precip Events Conditions
12:15 AM 46.4 °F 41.9 °F 35.6 °F 66% 29.92 in 10.0 mi NNW 9.2 mph - N/A   Clear
12:35 AM 44.6 °F 39.2 °F 35.6 °F 71% 29.92 in 10.0 mi NNW 10.4 mph 17.3 mph N/A   Clear
12:55 AM 44.6 °F 40.2 °F 37.4 °F 76% 29.93 in 10.0 mi NNW 8.1 mph - N/A   Clear
1:15 AM 44.6 °F 41.4 °F 37.4 °F 76% 29.93 in 10.0 mi NNW 5.8 mph - N/A   Clear
1:35 AM 44.6 °F 40.2 °F 35.6 °F 71% 29.92 in 10.0 mi NNW 8.1 mph - N/A   Clear
1:55 AM 44.6 °F 40.2 °F 35.6 °F 71% 29.92 in 10.0 mi NNW 8.1 mph - N/A   Clear
2:15 AM 42.8 °F 38.6 °F 35.6 °F 76% 29.92 in 10.0 mi NW 6.9 mph - N/A   Clear
2:35 AM 44.6 °F 39.7 °F 35.6 °F 71% 29.92 in 10.0 mi NNW 9.2 mph - N/A   Clear
2:55 AM 44.6 °F 39.7 °F 33.8 °F 66% 29.91 in 10.0 mi NW 9.2 mph - N/A   Clear
3:15 AM 44.6 °F 39.2 °F 33.8 °F 66% 29.91 in 10.0 mi NNW 10.4 mph - N/A   Clear
3:35 AM 44.6 °F 40.2 °F 33.8 °F 66% 29.91 in 10.0 mi NNW 8.1 mph 16.1 mph N/A   Clear
3:55 AM 44.6 °F 38.8 °F 32.0 °F 61% 29.91 in 10.0 mi NNW 11.5 mph 16.1 mph N/A   Clear
4:15 AM 44.6 °F 39.2 °F 32.0 °F 61% 29.91 in 10.0 mi NW 10.4 mph 16.1 mph N/A   Clear
4:35 AM 42.8 °F 38.0 °F 32.0 °F 66% 29.91 in 10.0 mi NW 8.1 mph - N/A   Clear
4:55 AM 42.8 °F 37.5 °F 32.0 °F 66% 29.91 in 10.0 mi NW 9.2 mph - N/A   Clear
5:15 AM 42.8 °F 37.5 °F 32.0 °F 66% 29.91 in 10.0 mi NW 9.2 mph - N/A   Clear
5:35 AM 41.0 °F 34.7 °F 33.8 °F 76% 29.91 in 10.0 mi NW 10.4 mph - N/A   Clear
5:55 AM 39.2 °F 33.0 °F 33.8 °F 81% 29.91 in 10.0 mi NW 9.2 mph - N/A   Clear
6:15 AM 39.2 °F 33.0 °F 32.0 °F 75% 29.92 in 10.0 mi NW 9.2 mph - N/A   Clear
6:35 AM 39.2 °F 33.6 °F 33.8 °F 81% 29.93 in 10.0 mi NW 8.1 mph - N/A   Clear
6:55 AM 39.2 °F 33.0 °F 33.8 °F 81% 29.93 in 10.0 mi NW 9.2 mph - N/A   Clear
7:15 AM 39.2 °F 33.6 °F 33.8 °F 81% 29.93 in 10.0 mi NW 8.1 mph - N/A   Clear
7:35 AM 39.2 °F 32.0 °F 33.8 °F 81% 29.93 in 10.0 mi NW 11.5 mph - N/A   Clear
7:55 AM 39.2 °F 33.0 °F 33.8 °F 81% 29.94 in 10.0 mi NW 9.2 mph 16.1 mph N/A   Clear
8:15 AM 39.2 °F 32.5 °F 33.8 °F 81% 29.94 in 10.0 mi NW 10.4 mph - N/A   Clear
8:35 AM 41.0 °F 34.3 °F 33.8 °F 76% 29.95 in 10.0 mi NW 11.5 mph - N/A   Clear
8:55 AM 42.8 °F 36.2 °F 33.8 °F 70% 29.95 in 10.0 mi NNW 12.7 mph 17.3 mph N/A   Clear
9:15 AM 42.8 °F 35.8 °F 33.8 °F 70% 29.95 in 10.0 mi NNW 13.8 mph 20.7 mph N/A   Clear
9:35 AM 44.6 °F 37.4 °F 33.8 °F 66% 29.95 in 10.0 mi NW 16.1 mph 19.6 mph N/A   Clear
9:55 AM 44.6 °F 38.1 °F 32.0 °F 61% 29.95 in 10.0 mi NW 13.8 mph 18.4 mph N/A   Clear
10:15 AM 46.4 °F 40.1 °F 32.0 °F 57% 29.95 in 10.0 mi NNW 15.0 mph 20.7 mph N/A   Clear
10:35 AM 48.2 °F - 32.0 °F 54% 29.95 in 10.0 mi NNW 13.8 mph 19.6 mph N/A   Clear
10:55 AM 48.2 °F - 32.0 °F 54% 29.95 in 10.0 mi NNW 10.4 mph 19.6 mph N/A   Clear
11:15 AM 51.8 °F - 32.0 °F 47% 29.94 in 10.0 mi NW 16.1 mph 25.3 mph N/A   Clear
11:35 AM 51.8 °F - 30.2 °F 44% 29.94 in 10.0 mi North 13.8 mph 24.2 mph N/A   Clear
11:55 AM 51.8 °F - 30.2 °F 44% 29.94 in 10.0 mi NW 16.1 mph 23.0 mph N/A   Clear
12:15 PM 51.8 °F - 30.2 °F 44% 29.93 in 10.0 mi NNW 12.7 mph 23.0 mph N/A   Clear
12:35 PM 51.8 °F - 28.4 °F 41% 29.92 in 10.0 mi NNW 16.1 mph 23.0 mph N/A   Clear
12:55 PM 53.6 °F - 28.4 °F 38% 29.91 in 10.0 mi NW 12.7 mph 23.0 mph N/A   Clear
1:15 PM 53.6 °F - 26.6 °F 35% 29.90 in 10.0 mi NW 17.3 mph 24.2 mph N/A   Clear
1:35 PM 53.6 °F - 26.6 °F 35% 29.90 in 10.0 mi NNW 13.8 mph 29.9 mph N/A   Clear
1:55 PM 55.4 °F - 28.4 °F 36% 29.89 in 10.0 mi NW 18.4 mph 26.5 mph N/A   Clear
2:15 PM 55.4 °F - 28.4 °F 36% 29.88 in 10.0 mi NW 20.7 mph 27.6 mph N/A   Clear
2:35 PM 55.4 °F - 26.6 °F 33% 29.87 in 10.0 mi NW 20.7 mph 26.5 mph N/A   Clear
2:55 PM 55.4 °F - 26.6 °F 33% 29.86 in 10.0 mi NW 16.1 mph 28.8 mph N/A   Clear
3:15 PM 55.4 °F - 26.6 °F 33% 29.86 in 10.0 mi NNW 13.8 mph 26.5 mph N/A   Clear
3:35 PM 55.4 °F - 26.6 °F 33% 29.86 in 10.0 mi NW 19.6 mph 25.3 mph N/A   Clear
3:55 PM 55.4 °F - 24.8 °F 31% 29.85 in 10.0 mi NNW 19.6 mph 24.2 mph N/A   Clear
4:15 PM 55.4 °F - 24.8 °F 31% 29.85 in 10.0 mi NNW 12.7 mph 23.0 mph N/A   Clear
4:35 PM 55.4 °F - 23.0 °F 29% 29.85 in 10.0 mi NW 13.8 mph 25.3 mph N/A   Clear
4:55 PM 55.4 °F - 23.0 °F 29% 29.85 in 10.0 mi NW 18.4 mph 27.6 mph N/A   Clear
5:15 PM 53.6 °F - 23.0 °F 30% 29.84 in 10.0 mi NNW 15.0 mph 21.9 mph N/A   Clear
5:35 PM 53.6 °F - 23.0 °F 30% 29.84 in 10.0 mi NW 20.7 mph 25.3 mph N/A   Clear
5:55 PM 53.6 °F - 23.0 °F 30% 29.85 in 10.0 mi NW 19.6 mph 24.2 mph N/A   Clear
6:15 PM 51.8 °F - 23.0 °F 33% 29.85 in 10.0 mi NNW 13.8 mph 21.9 mph N/A   Clear
6:35 PM 50.0 °F - 23.0 °F 35% 29.86 in 10.0 mi NW 10.4 mph 17.3 mph N/A   Clear
6:55 PM 50.0 °F - 23.0 °F 35% 29.86 in 10.0 mi NW 11.5 mph - N/A   Clear
7:15 PM 48.2 °F - 23.0 °F 37% 29.86 in 10.0 mi NNW 10.4 mph 16.1 mph N/A   Clear
7:35 PM 48.2 °F - 23.0 °F 37% 29.86 in 10.0 mi NW 9.2 mph - N/A   Clear
7:55 PM 48.2 °F - 23.0 °F 37% 29.86 in 10.0 mi NW 9.2 mph - N/A   Clear
8:15 PM 46.4 °F 41.5 °F 23.0 °F 40% 29.86 in 10.0 mi NW 10.4 mph - N/A   Clear
8:35 PM 46.4 °F 41.5 °F 24.8 °F 43% 29.86 in 10.0 mi NW 10.4 mph - N/A   Clear
11:15 PM 42.8 °F 37.0 °F 23.0 °F 46% 29.85 in 10.0 mi NW 10.4 mph - N/A   Clear
11:35 PM 42.8 °F 35.8 °F 23.0 °F 46% 29.85 in 10.0 mi WNW 13.8 mph - N/A   Clear
11:55 PM 42.8 °F 36.2 °F 23.0 °F 46% 29.84 in 10.0 mi WNW 12.7 mph - N/A   Clear